Home > Weather > Nagaur > Past weeks

Flag for India Past Weather in Nagaur, Rajasthan, India — Yesterday and Last 2 Weeks

Now
82 °F

Passing clouds.


Feels Like: 89 °F
Forecast: 87 / 98 °F
Wind: 3 mph from North

Location: Jaipur / Sanganer

Current Time: Jul 26, 2016 at 3:36:29 AM

Latest Report: Jul 26, 2016 at 3:00 AM


Visibility: 3 mi

Pressure: 29.65 "Hg

Humidity: 79%

Dew Point: 75 °F

Location of NagaurLocation

Past Weather in Nagaur — Graph

°F

Nagaur Temperature Yesterday

Maximum temperature yesterday: 93 °F (at 12:00 PM)
Minimum temperature yesterday: 81 °F (at 4:30 AM)
Average temperature yesterday: 86 °F

High & Low Weather Summary for the Past Weeks

 TemperatureHumidityPressure
High97 °F (Jul 11, 2:00 PM)100% (Jul 15, 11:00 AM)29.71 "Hg (Jul 15, 11:00 AM)
Low75 °F (Jul 16, 2:00 PM)39% (Jul 23, 2:00 PM)29.47 "Hg (Jul 11, 3:00 AM)
Average85 °F74%29.61 "Hg
* Reported Jul 11 2:00 AM — Jul 26 1:00 AM, Nagaur, Weather by CustomWeather, © 2016

Note: Actual official high and low records may vary slightly from our data, if they occured in-between our weather recording intervals... More about our weather records

Advertising

Nagaur Weather History for the Previous 24 Hours

Scroll right to see more
 ConditionsComfort  
Time TempWeatherWind HumidityBarometerVisibility
1:00 AM
Tue, Jul 26
84 °FPassing clouds.3 mph74%29.68 "Hg3 mi
12:30 AM84 °FPassing clouds.2 mph74%29.68 "Hg3 mi
11:30 PM
Mon, Jul 25
84 °FPassing clouds.5 mph74%29.68 "Hg3 mi
11:00 PM84 °FPartly cloudy.3 mph74%29.68 "Hg3 mi
10:30 PM84 °FPartly cloudy.5 mph74%29.68 "Hg3 mi
10:00 PM84 °FPartly cloudy.3 mph70%29.68 "Hg3 mi
9:30 PM86 °FPartly cloudy.5 mph66%29.65 "Hg3 mi
9:00 PM84 °FPartly cloudy.1 mph70%29.65 "Hg2 mi
8:30 PM86 °FPartly cloudy.1 mph66%29.65 "Hg2 mi
8:00 PM84 °FPartly cloudy.3 mph70%29.65 "Hg2 mi
7:30 PM86 °FBroken clouds.3 mph62%29.62 "Hg2 mi
7:00 PM86 °FBroken clouds.3 mph62%29.62 "Hg2 mi
6:30 PM86 °FBroken clouds.6 mph62%29.62 "Hg2 mi
6:00 PM84 °FBroken clouds.7 mph66%29.62 "Hg2 mi
5:30 PM84 °FBroken clouds.9 mph70%29.62 "Hg2 mi
4:30 PM93 °FScattered clouds.16 mph53%29.68 "Hg2 mi
4:00 PM93 °FScattered clouds.6 mph53%29.62 "Hg2 mi
3:30 PM93 °FScattered clouds.7 mph53%29.62 "Hg2 mi
3:00 PM93 °FScattered clouds.8 mph56%29.65 "Hg2 mi
2:30 PM93 °FScattered clouds.6 mph53%29.65 "Hg3 mi
1:30 PM90 °FScattered clouds.9 mph63%29.68 "Hg3 mi
1:00 PM88 °FScattered clouds.13 mph66%29.68 "Hg4 mi
12:30 PM93 °FScattered clouds.6 mph53%29.68 "Hg4 mi
12:00 PM93 °FScattered clouds.6 mph56%29.71 "Hg4 mi
11:30 AM91 °FPartly sunny.6 mph59%29.71 "Hg4 mi
11:00 AM91 °FScattered clouds.5 mph56%29.71 "Hg4 mi
10:30 AM91 °FPassing clouds.3 mph59%29.71 "Hg4 mi
9:30 AM90 °FPassing clouds.2 mph63%29.71 "Hg4 mi
9:00 AM88 °FPassing clouds.2 mph66%29.71 "Hg4 mi
8:30 AM86 °FPassing clouds.3 mph75%29.71 "Hg4 mi
7:30 AM84 °FHaze.3 mph74%29.68 "Hg3 mi
7:00 AM82 °FScattered clouds.1 mph79%29.68 "Hg3 mi
6:30 AM82 °FScattered clouds.3 mph79%29.68 "Hg3 mi
6:00 AM82 °FPassing clouds.3 mph79%29.68 "Hg3 mi
5:30 AM81 °FPassing clouds.3 mph84%29.68 "Hg3 mi
5:00 AM81 °FPassing clouds.3 mph89%29.65 "Hg3 mi
4:30 AM81 °FPassing clouds.2 mph89%29.65 "Hg3 mi
4:00 AM82 °FWarm.N/A84%29.65 "HgN/A
3:00 AM82 °FPartly cloudy.5 mph79%29.65 "Hg3 mi
Weather by CustomWeather, © 2016

See weather overviewHow to use our weather pages